EW4264 Weather Reports


time (UTC)temp
F
wind
direction
speed
knots
gust
knots
rain 1hr
in
rain 24hr
in
rain mn
in
humidity
%
barometer
mb
20220811233003 73 89 0.0 0.0 0.00 0.41 0.41 95 989.2
20220811231503 73 89 0.0 0.0 0.00 0.41 0.41 95 989.2
20220811230009 72 89 0.0 0.0 0.04 0.41 0.41 95 988.7
20220811224609 72 89 0.0 0.9 0.06 0.41 0.41 94 988.7
20220811223213 72 89 0.0 1.7 0.40 0.41 0.41 93 988.9
20220811221555 73 91 3.5 8.7 0.41 0.41 0.41 93 989.5
20220811220053 73 129 3.5 8.7 0.38 0.38 0.38 91 990.1
20220811214617 75 102 3.5 8.7 0.35 0.35 0.35 84 990.3
20220811213100 87 37 0.9 5.2 0.01 0.01 0.01 57 989.5
20220811211614 94 91 0.0 1.7 0.00 0.00 0.00 42 988.8
20220811210048 95 37 0.0 1.7 0.00 0.00 0.00 41 988.5
20220811204552 94 141 0.0 3.5 0.00 0.00 0.00 39 988.8
20220811203049 95 206 0.0 0.9 0.00 0.00 0.00 40 988.8
20220811201544 95 206 0.0 2.6 0.00 0.00 0.00 39 988.9
20220811200113 96 120 0.0 4.3 0.00 0.00 0.00 38 989.1
20220811194540 97 218 0.0 3.5 0.00 0.00 0.00 38 989.3
20220811193038 96 304 0.0 4.3 0.00 0.00 0.00 39 989.7
20220811191534 94 122 0.0 2.6 0.00 0.00 0.00 40 989.9
20220811190035 94 230 0.0 2.6 0.00 0.00 0.00 41 990.3
20220811184525 94 225 0.9 5.2 0.00 0.00 0.00 41 990.7
20220811181526 90 169 0.9 3.5 0.00 0.00 0.00 47 991.2
20220811180014 90 347 0.0 3.5 0.00 0.00 0.00 47 991.4
20220811174532 90 218 0.0 2.6 0.00 0.00 0.00 47 991.7
20220811173037 91 204 1.7 3.5 0.00 0.00 0.00 46 991.9
20220811171510 90 237 0.9 5.2 0.00 0.00 0.00 48 992.2
20220811170018 90 214 0.0 1.7 0.00 0.00 0.00 48 992.3
20220811164505 89 234 0.0 1.7 0.00 0.00 0.00 49 992.4
20220811163004 89 231 0.0 0.9 0.00 0.00 0.00 48 992.4
20220811161614 87 111 0.9 3.5 0.00 0.00 0.00 50 992.4
20220811160113 85 226 0.0 1.7 0.00 0.00 0.00 55 992.5
20220811154553 85 139 0.0 2.6 0.00 0.00 0.00 57 992.4
20220811153050 84 139 0.0 1.7 0.00 0.00 0.00 60 992.2
20220811151553 83 118 0.0 2.6 0.00 0.00 0.00 61 992.1
20220811150043 82 120 0.0 2.6 0.00 0.00 0.00 63 992.1
20220811144540 81 228 0.0 2.6 0.00 0.00 0.00 67 992.1
20220811143046 80 99 0.0 0.0 0.00 0.00 0.00 69 992.2
20220811141535 79 99 0.0 2.6 0.00 0.00 0.00 70 992.1
20220811140033 78 53 0.0 0.9 0.00 0.00 0.00 74 992.0
20220811134542 77 53 0.0 0.9 0.00 0.00 0.00 77 992.0
20220811133023 76 53 0.0 0.9 0.00 0.00 0.00 81 991.8
20220811131520 75 53 0.0 0.0 0.00 0.00 0.00 84 991.5
20220811130028 75 53 0.0 0.9 0.00 0.00 0.00 85 991.5
20220811124534 74 53 0.0 0.0 0.00 0.00 0.00 87 991.4
20220811123040 74 53 0.0 0.9 0.00 0.00 0.00 87 991.4
20220811121520 74 53 0.0 0.0 0.00 0.00 0.00 87 991.4
20220811120028 74 53 0.0 0.9 0.00 0.00 0.00 87 991.3
20220811114516 74 53 0.0 0.0 0.00 0.00 0.00 87 991.4
20220811113029 74 53 0.0 0.9 0.00 0.00 0.00 87 991.2
20220811111517 74 53 0.0 0.9 0.00 0.00 0.00 87 991.2
20220811110015 74 53 0.0 0.0 0.00 0.00 0.00 86 991.2
20220811104519 75 53 0.0 0.9 0.00 0.00 0.00 86 991.1
20220811103032 75 356 0.0 0.9 0.00 0.00 0.00 85 991.3
20220811101514 75 47 0.0 0.9 0.00 0.00 0.00 85 991.4
20220811100008 75 47 0.0 0.9 0.00 0.00 0.00 85 991.5
20220811094512 74 47 0.0 0.0 0.00 0.00 0.00 84 991.5
20220811093008 74 47 0.0 0.0 0.00 0.00 0.00 84 991.7
20220811091506 74 47 0.0 0.9 0.00 0.00 0.00 83 991.8
20220811090004 74 99 0.0 0.0 0.00 0.00 0.00 83 991.8
20220811084505 74 99 0.0 0.0 0.00 0.00 0.00 83 991.9
20220811083128 74 99 0.0 0.0 0.00 0.00 0.00 83 992.0
20220811081618 74 99 0.0 0.0 0.00 0.00 0.00 82 992.0
20220811080136 75 99 0.0 0.0 0.00 0.00 0.00 81 992.1
20220811074559 75 99 0.0 0.0 0.00 0.00 0.00 81 992.2
20220811073053 75 99 0.0 0.0 0.00 0.00 0.00 81 992.4
20220811071552 75 99 0.0 0.0 0.00 0.00 0.00 80 992.7
20220811070050 76 99 0.0 0.0 0.00 0.00 0.00 80 992.7
20220811064548 76 99 0.0 0.0 0.00 0.00 0.00 79 992.9
20220811063057 76 99 0.0 0.0 0.00 0.00 0.00 78 993.1
20220811061546 77 99 0.0 0.0 0.00 0.00 0.00 77 993.1
20220811060042 77 99 0.0 0.9 0.00 0.00 0.00 77 992.9
20220811054538 77 133 0.0 0.9 0.00 0.00 0.00 76 992.8
20220811053037 78 80 0.0 0.9 0.00 0.00 0.00 76 992.8
20220811051540 78 80 0.0 0.9 0.00 0.00 0.00 75 992.6
20220811050035 78 305 0.0 0.9 0.00 0.00 0.00 73 992.8
20220811044532 79 79 0.0 1.7 0.00 0.00 0.00 71 993.0
20220811043028 80 326 0.0 1.7 0.00 0.00 0.00 71 993.3
20220811041537 80 306 0.0 0.9 0.00 0.00 0.00 69 993.2
20220811040039 80 181 0.0 0.0 0.00 0.00 0.00 67 993.0
20220811034536 80 181 0.0 0.0 0.00 0.00 0.00 66 992.6
20220811033026 81 181 0.0 1.7 0.00 0.00 0.00 66 992.1
20220811030044 80 231 0.0 0.9 0.00 0.00 0.00 67 992.2
20220811024522 80 231 0.0 0.9 0.00 0.00 0.00 68 992.0
20220811023053 80 227 0.0 0.9 0.00 0.00 0.00 68 991.7
20220811021528 81 227 0.0 0.0 0.00 0.00 0.00 68 991.3
20220811020020 81 213 0.0 0.0 0.00 0.00 0.00 67 991.4
20220811014525 82 228 0.0 0.0 0.00 0.00 0.00 67 991.0
20220811013018 82 228 0.0 1.7 0.00 0.00 0.00 66 991.1
20220811011518 82 185 0.0 2.6 0.00 0.00 0.00 66 991.1
20220811010045 83 212 0.0 4.3 0.00 0.00 0.00 63 990.7
20220811004517 85 236 0.0 3.5 0.00 0.00 0.00 59 990.6
20220811003020 86 218 0.9 7.0 0.00 0.00 0.00 57 990.1
20220811001515 87 29 0.0 4.3 0.00 0.00 0.00 55 990.2
20220811000029 89 199 1.7 7.8 0.00 0.00 0.00 49 990.0
20220810234514 97 224 0.0 2.6 0.00 0.00 0.00 34 989.9